TimeEDT,TemperatureF,Dew PointF,Humidity,Sea Level PressureIn,VisibilityMPH,Wind Direction,Wind SpeedMPH,Gust SpeedMPH,PrecipitationIn,Events,Conditions,WindDirDegrees,DateUTC
12:15 AM,66.2,64.4,94,30.27,10.0,SE,6.9,-,N/A,,Clear,140,2013-07-05 04:15:00
12:35 AM,65.7,64.6,96,30.27,10.0,SSE,3.5,-,N/A,,Scattered Clouds,150,2013-07-05 04:35:00
12:55 AM,65.8,64.8,96,30.27,10.0,SSE,4.6,-,N/A,Rain,Light Rain,150,2013-07-05 04:55:00
1:15 AM,65.7,64.8,97,30.26,10.0,SSE,9.2,-,N/A,,Drizzle,150,2013-07-05 05:15:00
1:35 AM,66.6,64.2,92,30.26,10.0,SE,8.1,-,N/A,,Mostly Cloudy,140,2013-07-05 05:35:00
1:55 AM,67.5,63.5,87,30.26,10.0,SSE,8.1,17.3,N/A,,Scattered Clouds,150,2013-07-05 05:55:00
2:15 AM,66.2,63.7,92,30.26,10.0,SSE,8.1,-,N/A,,Mostly Cloudy,150,2013-07-05 06:15:00
2:35 AM,68.0,63.0,84,30.26,10.0,SSE,9.2,-,0.01,,Scattered Clouds,160,2013-07-05 06:35:00
2:55 AM,67.5,63.1,86,30.26,10.0,SSE,10.4,17.3,0.01,,Clear,150,2013-07-05 06:55:00
3:15 AM,66.7,63.1,88,30.25,10.0,SSE,6.9,-,N/A,,Clear,160,2013-07-05 07:15:00
3:35 AM,67.1,62.8,86,30.25,10.0,SE,5.8,-,N/A,,Clear,140,2013-07-05 07:35:00
3:55 AM,66.6,62.8,88,30.25,10.0,SSE,5.8,-,N/A,,Scattered Clouds,150,2013-07-05 07:55:00
4:15 AM,66.9,62.8,87,30.25,10.0,SSE,6.9,-,N/A,,Scattered Clouds,160,2013-07-05 08:15:00
4:35 AM,67.3,62.6,85,30.24,10.0,SSE,8.1,16.1,N/A,,Clear,150,2013-07-05 08:35:00
4:55 AM,67.3,62.6,85,30.24,10.0,SSE,8.1,-,N/A,,Clear,150,2013-07-05 08:55:00
5:15 AM,67.3,62.6,85,30.25,10.0,SSE,5.8,-,N/A,,Clear,160,2013-07-05 09:15:00
5:35 AM,67.1,62.8,86,30.24,10.0,SE,4.6,-,N/A,,Clear,140,2013-07-05 09:35:00
5:55 AM,67.1,62.6,85,30.24,10.0,SSE,3.5,-,N/A,,Clear,150,2013-07-05 09:55:00
6:15 AM,66.9,62.6,86,30.24,10.0,Calm,Calm,-,N/A,,Clear,0,2013-07-05 10:15:00
6:35 AM,66.4,62.6,88,30.25,10.0,NE,3.5,-,N/A,,Clear,50,2013-07-05 10:35:00
6:55 AM,67.5,62.4,84,30.25,10.0,Calm,Calm,-,N/A,,Scattered Clouds,0,2013-07-05 10:55:00
7:15 AM,67.1,62.8,86,30.25,10.0,NE,3.5,-,N/A,,Mostly Cloudy,40,2013-07-05 11:15:00
7:35 AM,67.3,63.3,87,30.26,10.0,ENE,3.5,-,N/A,,Scattered Clouds,60,2013-07-05 11:35:00
7:55 AM,68.0,63.9,87,30.26,10.0,Calm,Calm,-,N/A,,Scattered Clouds,0,2013-07-05 11:55:00
8:15 AM,68.2,63.7,85,30.27,10.0,SSE,3.5,-,N/A,,Scattered Clouds,150,2013-07-05 12:15:00
8:35 AM,68.0,63.7,86,30.28,10.0,SE,5.8,-,N/A,,Clear,140,2013-07-05 12:35:00
8:55 AM,68.7,63.7,84,30.27,10.0,SE,8.1,-,N/A,,Clear,140,2013-07-05 12:55:00
9:15 AM,69.1,64.0,84,30.28,10.0,SSE,8.1,-,N/A,,Clear,150,2013-07-05 13:15:00
9:35 AM,71.1,64.4,79,30.28,10.0,South,6.9,-,N/A,,Clear,180,2013-07-05 13:35:00
9:55 AM,70.7,64.6,81,30.28,10.0,SSE,9.2,-,N/A,,Clear,150,2013-07-05 13:55:00
10:15 AM,70.3,64.6,82,30.29,10.0,SSE,4.6,-,N/A,,Clear,160,2013-07-05 14:15:00
10:35 AM,70.7,64.0,79,30.29,10.0,SSE,3.5,-,N/A,,Clear,160,2013-07-05 14:35:00
10:55 AM,71.2,65.1,81,30.28,10.0,South,6.9,-,N/A,,Clear,170,2013-07-05 14:55:00
11:15 AM,72.1,65.3,79,30.29,10.0,South,3.5,-,N/A,,Clear,170,2013-07-05 15:15:00
11:35 AM,72.1,64.9,78,30.29,10.0,SSE,3.5,-,N/A,,Clear,150,2013-07-05 15:35:00
11:55 AM,72.0,65.3,79,30.29,10.0,Calm,Calm,-,N/A,,Clear,0,2013-07-05 15:55:00
12:15 PM,73.8,65.7,76,30.30,10.0,SSE,4.6,-,N/A,,Clear,160,2013-07-05 16:15:00
12:35 PM,72.5,64.6,76,30.30,10.0,South,6.9,-,N/A,,Clear,190,2013-07-05 16:35:00
12:55 PM,73.4,65.5,76,30.31,10.0,SSE,3.5,-,N/A,,Clear,160,2013-07-05 16:55:00
1:15 PM,73.6,65.7,76,30.31,10.0,Calm,Calm,-,N/A,,Scattered Clouds,0,2013-07-05 17:15:00
1:35 PM,75.2,66.2,73,30.30,10.0,South,3.5,-,N/A,,Scattered Clouds,190,2013-07-05 17:35:00
1:55 PM,76.1,66.4,72,30.29,10.0,SE,3.5,-,N/A,,Scattered Clouds,140,2013-07-05 17:55:00
2:15 PM,76.3,65.3,69,30.29,10.0,SSW,8.1,-,N/A,,Mostly Cloudy,200,2013-07-05 18:15:00
2:35 PM,77.7,65.5,66,30.29,10.0,SSW,10.4,-,N/A,,Mostly Cloudy,210,2013-07-05 18:35:00
2:55 PM,77.4,65.1,66,30.28,10.0,SSW,3.5,-,N/A,,Mostly Cloudy,200,2013-07-05 18:55:00
3:15 PM,79.3,66.0,64,30.28,10.0,SSW,5.8,-,N/A,,Mostly Cloudy,200,2013-07-05 19:15:00
3:35 PM,78.4,64.9,63,30.27,10.0,South,5.8,-,N/A,,Mostly Cloudy,190,2013-07-05 19:35:00
3:55 PM,79.3,65.8,63,30.26,10.0,WSW,6.9,-,N/A,,Scattered Clouds,240,2013-07-05 19:55:00
4:15 PM,79.5,65.7,62,30.25,10.0,SW,3.5,-,N/A,,Mostly Cloudy,220,2013-07-05 20:15:00
4:35 PM,79.3,66.6,65,30.24,10.0,South,4.6,-,N/A,,Mostly Cloudy,170,2013-07-05 20:35:00
4:55 PM,80.6,66.4,62,30.24,10.0,SSW,5.8,-,N/A,,Scattered Clouds,200,2013-07-05 20:55:00
5:15 PM,79.9,66.0,62,30.24,10.0,SSE,3.5,-,N/A,,Mostly Cloudy,150,2013-07-05 21:15:00
5:35 PM,78.4,64.4,62,30.24,10.0,South,4.6,-,N/A,,Overcast,190,2013-07-05 21:35:00
5:55 PM,79.0,65.7,64,30.24,10.0,Calm,Calm,-,N/A,,Mostly Cloudy,0,2013-07-05 21:55:00
6:15 PM,78.3,65.3,64,30.24,10.0,South,4.6,-,N/A,,Mostly Cloudy,170,2013-07-05 22:15:00
6:35 PM,79.7,64.9,61,30.23,10.0,South,6.9,-,N/A,,Scattered Clouds,190,2013-07-05 22:35:00
6:55 PM,79.0,64.6,61,30.24,10.0,South,6.9,-,N/A,,Clear,190,2013-07-05 22:55:00
7:15 PM,78.6,65.7,64,30.24,10.0,West,3.5,-,N/A,,Clear,270,2013-07-05 23:15:00
7:35 PM,75.6,66.2,73,30.24,7.0,South,9.2,-,N/A,Rain,Light Rain,190,2013-07-05 23:35:00
7:55 PM,75.0,66.4,74,30.24,10.0,SW,4.6,-,N/A,,Overcast,230,2013-07-05 23:55:00
8:15 PM,73.0,67.8,84,30.25,10.0,West,8.1,-,N/A,,Scattered Clouds,260,2013-07-06 00:15:00
8:35 PM,72.5,67.3,84,30.25,10.0,Calm,Calm,-,N/A,,Clear,0,2013-07-06 00:35:00
8:55 PM,73.6,65.5,76,30.26,10.0,SSW,4.6,-,N/A,,Clear,200,2013-07-06 00:55:00
9:15 PM,72.5,66.2,81,30.26,10.0,SW,3.5,-,N/A,,Clear,230,2013-07-06 01:15:00
9:35 PM,72.7,64.8,76,30.26,10.0,South,4.6,-,N/A,,Clear,170,2013-07-06 01:35:00
9:55 PM,72.1,64.8,78,30.26,10.0,South,4.6,-,N/A,,Clear,190,2013-07-06 01:55:00
10:15 PM,72.0,64.0,76,30.27,10.0,South,3.5,-,N/A,,Clear,180,2013-07-06 02:15:00
10:35 PM,72.0,62.6,72,30.28,10.0,South,4.6,-,N/A,,Clear,190,2013-07-06 02:35:00
10:55 PM,71.6,62.2,72,30.29,10.0,South,4.6,-,N/A,,Scattered Clouds,180,2013-07-06 02:55:00
11:15 PM,70.0,62.6,77,30.29,10.0,SSE,5.8,-,N/A,,Scattered Clouds,160,2013-07-06 03:15:00
11:35 PM,70.7,61.7,73,30.29,10.0,South,5.8,-,N/A,,Clear,170,2013-07-06 03:35:00
11:55 PM,70.0,61.7,75,30.29,10.0,SSE,8.1,-,N/A,,Mostly Cloudy,160,2013-07-06 03:55:00